TimeEDT,TemperatureF,Dew PointF,Humidity,Sea Level PressureIn,VisibilityMPH,Wind Direction,Wind SpeedMPH,Gust SpeedMPH,PrecipitationIn,Events,Conditions,WindDirDegrees,DateUTC
12:53 AM,75.0,70.0,84,30.06,7.0,Calm,Calm,-,N/A,,Clear,0,2013-09-07 04:53:00
1:53 AM,73.0,70.0,90,30.05,10.0,Calm,Calm,-,N/A,,Clear,0,2013-09-07 05:53:00
2:53 AM,73.0,69.1,87,30.05,10.0,Calm,Calm,-,N/A,,Clear,0,2013-09-07 06:53:00
3:53 AM,71.1,68.0,90,30.05,10.0,Calm,Calm,-,N/A,,Clear,0,2013-09-07 07:53:00
4:53 AM,70.0,66.9,90,30.04,9.0,North,4.6,-,N/A,,Clear,360,2013-09-07 08:53:00
5:53 AM,69.1,66.9,93,30.05,8.0,Calm,Calm,-,N/A,,Clear,0,2013-09-07 09:53:00
6:53 AM,70.0,66.9,90,30.06,7.0,NNE,4.6,-,N/A,,Clear,20,2013-09-07 10:53:00
7:53 AM,71.1,68.0,90,30.07,6.0,North,4.6,-,N/A,,Partly Cloudy,10,2013-09-07 11:53:00
8:53 AM,75.0,70.0,84,30.07,8.0,North,4.6,-,N/A,,Partly Cloudy,10,2013-09-07 12:53:00
9:53 AM,80.1,71.1,74,30.08,10.0,NNE,4.6,-,N/A,,Partly Cloudy,30,2013-09-07 13:53:00
10:53 AM,84.0,70.0,63,30.08,10.0,NE,6.9,-,N/A,,Partly Cloudy,40,2013-09-07 14:53:00
11:53 AM,86.0,68.0,55,30.08,10.0,Variable,6.9,-,N/A,,Scattered Clouds,0,2013-09-07 15:53:00
12:53 PM,87.1,66.9,51,30.06,10.0,North,8.1,16.1,N/A,,Scattered Clouds,10,2013-09-07 16:53:00
1:53 PM,87.1,64.0,46,30.06,10.0,NNE,8.1,-,N/A,,Scattered Clouds,20,2013-09-07 17:53:00
2:53 PM,88.0,66.0,48,30.03,10.0,NNE,8.1,-,N/A,,Scattered Clouds,20,2013-09-07 18:53:00
3:53 PM,88.0,64.0,45,30.01,10.0,Variable,3.5,-,N/A,,Partly Cloudy,0,2013-09-07 19:53:00
4:53 PM,87.1,64.0,46,30.00,10.0,North,6.9,-,N/A,,Partly Cloudy,360,2013-09-07 20:53:00
5:53 PM,87.1,64.0,46,29.99,10.0,NE,6.9,-,N/A,,Partly Cloudy,40,2013-09-07 21:53:00
6:53 PM,84.9,64.0,49,29.99,10.0,NE,5.8,-,N/A,,Partly Cloudy,40,2013-09-07 22:53:00
7:53 PM,80.1,68.0,67,29.99,10.0,ESE,4.6,-,N/A,,Partly Cloudy,110,2013-09-07 23:53:00
8:53 PM,78.1,69.1,74,30.01,10.0,SE,3.5,-,N/A,,Clear,140,2013-09-08 00:53:00
9:53 PM,77.0,69.1,76,30.02,10.0,Calm,Calm,-,N/A,,Clear,0,2013-09-08 01:53:00
11:23 PM,73.0,69.1,87,30.02,9.0,Calm,Calm,-,N/A,,Clear,0,2013-09-08 03:23:00
11:53 PM,73.0,69.1,87,30.02,9.0,Calm,Calm,-,N/A,,Clear,0,2013-09-08 03:53:00